Paynesville, MN

8:32 PM CST on November 19, 2017 (GMT -0600)
Paynesville

Weather History for KPEX - March, 2013

Change the Weather History Date:

Tuesday, March 5, 2013

  Actual Average (KLJF) Record (KLJF)
Temperature  
Mean Temperature 20 °F -  
Max Temperature 28 °F 34 °F 64 °F (2017)
Min Temperature 11 °F 16 °F -14 °F (1960)
Degree Days  
Heating Degree Days 46    
Moisture  
Dew Point 20 °F    
Average Humidity 87    
Maximum Humidity 95    
Minimum Humidity 69    
Precipitation  
Precipitation 0.04 in - - ()
Sea Level Pressure  
Sea Level Pressure 30.11 in    
Wind  
Wind Speed 7 mph (North)    
Max Wind Speed 10 mph    
Max Gust Speed -    
Visibility 6 miles    
Events Snow    
Averages and records for this station are not official NWS values.
T = Trace of Precipitation, MM = Missing Value Source: NWS Daily Summary

Daily Weather History Graph

Daily Weather History Graph

Search for Another Location

Airport or City:

Trip Planner

Search our weather history database for the weather conditions in past years. The results will help you decide how hot, cold, wet, or windy it might be!

Date:

Astronomy

Mar. 05, 2013 Rise Set
Actual Time 6:49 AM CST 6:11 PM CST
Civil Twilight 6:20 AM CST 6:41 PM CST
Nautical Twilight 5:45 AM CST 7:15 PM CST
Astronomical Twilight 5:11 AM CST 7:50 PM CST
Moon 2:15 AM CST (3/5) 11:39 AM CST (3/5)
Length of Visible Light 12h 21m
Length of Day
11h 22m
Last Quarter, 40% of the Moon is Illuminated
Mar 5
Last Quarter
Mar 11
New
Mar 19
First Quarter
Mar 27
Full
Apr 2
Last Quarter

Hourly Weather History & Observations

Time (CST) Temp. Windchill Dew Point Humidity Pressure Visibility Wind Dir Wind Speed Gust Speed Precip Events Conditions
12:13 AM 22.6 °F 14.3 °F 20.7 °F 92% 29.95 in 1.5 mi East 6.9 mph - N/A Snow Light Snow
12:33 AM 22.6 °F 13.4 °F 20.8 °F 93% 29.95 in 1.2 mi East 8.1 mph - 0.01 in Snow Light Snow
12:53 AM 22.6 °F 14.3 °F 20.8 °F 93% 29.94 in 1.8 mi East 6.9 mph - 0.01 in Snow Light Snow
1:13 AM 22.8 °F 14.5 °F 20.8 °F 92% 29.95 in 1.8 mi East 6.9 mph - N/A Snow Light Snow
1:33 AM 22.8 °F 13.6 °F 21.0 °F 93% 29.94 in 2.0 mi East 8.1 mph - 0.02 in Snow Light Snow
1:53 AM 22.8 °F 15.5 °F 21.0 °F 93% 29.95 in 1.5 mi East 5.8 mph - 0.02 in Snow Light Snow
2:13 AM 23.0 °F 14.7 °F 21.2 °F 93% 29.94 in 1.5 mi East 6.9 mph - N/A Snow Light Snow
2:33 AM 23.0 °F 15.8 °F 21.2 °F 93% 29.95 in 1.2 mi East 5.8 mph - 0.01 in Snow Light Snow
3:13 AM 23.0 °F 15.8 °F 21.2 °F 93% 29.94 in 1.8 mi East 5.8 mph - N/A Snow Light Snow
3:33 AM 23.0 °F 17.0 °F 21.2 °F 93% 29.94 in 1.8 mi East 4.6 mph - N/A Snow Light Snow
3:53 AM 23.0 °F 15.8 °F 21.2 °F 93% 29.94 in 2.5 mi East 5.8 mph - N/A Snow Light Snow
4:13 AM 23.0 °F 15.8 °F 21.2 °F 93% 29.94 in 1.5 mi East 5.8 mph - N/A Snow Light Snow
4:33 AM 23.0 °F 15.8 °F 21.2 °F 93% 29.94 in 1.8 mi ENE 5.8 mph - N/A Snow Light Snow
4:53 AM 23.0 °F 17.0 °F 21.2 °F 93% 29.95 in 2.5 mi ENE 4.6 mph - N/A Snow Light Snow
5:13 AM 23.0 °F 15.8 °F 21.2 °F 93% 29.96 in 2.5 mi NE 5.8 mph - N/A Snow Light Snow
5:33 AM 23.0 °F 14.7 °F 21.2 °F 93% 29.96 in 2.0 mi ENE 6.9 mph - N/A Snow Light Snow
5:53 AM 23.0 °F 17.0 °F 21.2 °F 93% 29.97 in 1.5 mi NE 4.6 mph - N/A Snow Light Snow
6:13 AM 23.0 °F 17.0 °F 21.2 °F 93% 29.98 in 2.5 mi NE 4.6 mph - N/A Snow Light Snow
7:13 AM 22.6 °F 14.3 °F 21.0 °F 93% 30.00 in 2.5 mi NNE 6.9 mph - N/A Snow Light Snow
7:33 AM 22.6 °F 15.3 °F 21.0 °F 93% 30.01 in 2.5 mi NNE 5.8 mph - N/A Snow Light Snow
7:53 AM 22.6 °F 13.4 °F 21.0 °F 93% 30.02 in 1.5 mi NNE 8.1 mph - N/A Snow Light Snow
8:13 AM 22.6 °F 13.4 °F 21.0 °F 93% 30.02 in 1.2 mi North 8.1 mph - N/A Snow Light Snow
8:33 AM 22.8 °F 14.5 °F 20.8 °F 92% 30.03 in 1.8 mi North 6.9 mph - N/A Snow Light Snow
8:53 AM 23.0 °F 14.7 °F 20.8 °F 91% 30.04 in 2.5 mi NNE 6.9 mph - N/A Snow Light Snow
9:13 AM 23.0 °F 13.9 °F 20.3 °F 89% 30.05 in 3.0 mi North 8.1 mph - N/A   Overcast
9:33 AM 23.4 °F 14.3 °F 20.7 °F 89% 30.05 in 2.5 mi North 8.1 mph - N/A   Overcast
9:53 AM 23.7 °F 15.6 °F 20.8 °F 89% 30.06 in 2.0 mi North 6.9 mph - N/A Snow Light Snow
10:13 AM 23.9 °F 14.2 °F 21.0 °F 89% 30.07 in 1.5 mi North 9.2 mph - N/A Snow Light Snow
10:33 AM 24.3 °F 15.4 °F 21.2 °F 88% 30.08 in 2.0 mi North 8.1 mph - N/A Snow Light Snow
10:53 AM 24.8 °F 15.3 °F 21.2 °F 86% 30.09 in 2.5 mi North 9.2 mph - N/A Snow Light Snow
11:13 AM 25.2 °F 16.5 °F 21.2 °F 85% 30.09 in 2.5 mi North 8.1 mph - N/A Snow Light Snow
11:33 AM 25.3 °F 16.7 °F 21.7 °F 86% 30.09 in 1.5 mi North 8.1 mph - N/A Snow Light Snow
11:53 AM 25.7 °F 16.4 °F 21.7 °F 85% 30.10 in 2.0 mi North 9.2 mph - N/A Snow Light Snow
12:13 PM 26.2 °F 17.8 °F 22.1 °F 84% 30.10 in 3.0 mi North 8.1 mph - N/A   Overcast
12:33 PM 26.4 °F 18.0 °F 22.1 °F 84% 30.10 in 5.0 mi North 8.1 mph - N/A   Overcast
12:53 PM 26.6 °F 17.5 °F 22.1 °F 83% 30.11 in 7.0 mi North 9.2 mph - N/A   Mostly Cloudy
1:12 PM 26.8 °F 18.5 °F 22.1 °F 83% 30.11 in 5.0 mi North 8.1 mph - N/A   Haze
1:33 PM 27.3 °F 19.9 °F 21.7 °F 80% 30.11 in 10.0 mi North 6.9 mph - N/A   Overcast
1:53 PM 27.5 °F 18.6 °F 21.2 °F 77% 30.12 in 10.0 mi NNW 9.2 mph - N/A   Mostly Cloudy
2:13 PM 27.9 °F 18.4 °F 20.5 °F 74% 30.13 in 10.0 mi North 10.4 mph - N/A   Mostly Cloudy
2:33 PM 28.6 °F 19.9 °F 20.3 °F 71% 30.14 in 10.0 mi NNW 9.2 mph - N/A   Mostly Cloudy
2:53 PM 28.4 °F 19.7 °F 19.4 °F 69% 30.14 in 10.0 mi NNW 9.2 mph - N/A   Mostly Cloudy
3:13 PM 28.9 °F 21.1 °F 20.1 °F 70% 30.15 in 10.0 mi NW 8.1 mph - N/A   Overcast
3:33 PM 28.8 °F 20.2 °F 20.7 °F 72% 30.16 in 7.0 mi NW 9.2 mph - N/A Snow Light Snow
3:53 PM 27.7 °F 19.6 °F 22.8 °F 82% 30.16 in 2.5 mi WNW 8.1 mph - N/A Snow Light Snow
4:13 PM 27.1 °F 19.7 °F 23.7 °F 87% 30.17 in 1.2 mi NNW 6.9 mph - N/A Snow Light Snow
4:33 PM 27.1 °F 18.9 °F 23.7 °F 87% 30.18 in 3.0 mi North 8.1 mph - N/A Snow Light Snow
4:53 PM 27.0 °F 21.6 °F 21.9 °F 81% 30.19 in 10.0 mi North 4.6 mph - N/A   Overcast
5:13 PM 26.6 °F 18.2 °F 20.3 °F 77% 30.20 in 10.0 mi NNW 8.1 mph - N/A   Overcast
5:33 PM 26.1 °F 17.6 °F 20.3 °F 79% 30.20 in 10.0 mi North 8.1 mph - N/A   Mostly Cloudy
5:53 PM 25.2 °F 17.3 °F 18.7 °F 76% 30.22 in 10.0 mi North 6.9 mph - N/A   Scattered Clouds
6:13 PM 23.5 °F - 17.6 °F 78% 30.22 in 10.0 mi Calm Calm - N/A   Clear
6:33 PM 22.3 °F - 16.9 °F 80% 30.24 in 10.0 mi Calm Calm - N/A   Scattered Clouds
6:53 PM 21.7 °F - 16.7 °F 81% 30.24 in 10.0 mi Calm Calm - N/A   Mostly Cloudy
7:13 PM 20.5 °F - 16.3 °F 84% 30.24 in 10.0 mi Calm Calm - N/A   Mostly Cloudy
7:33 PM 20.3 °F - 16.2 °F 84% 30.25 in 10.0 mi Calm Calm - N/A   Scattered Clouds
7:53 PM 16.3 °F - 13.5 °F 88% 30.26 in 10.0 mi Calm Calm - N/A   Clear
8:13 PM 16.7 °F - 14.2 °F 90% 30.26 in 10.0 mi Calm Calm - N/A   Clear
8:33 PM 11.1 °F - 9.3 °F 92% 30.26 in 10.0 mi Calm Calm - N/A   Clear
8:53 PM 14.2 °F 6.7 °F 12.9 °F 95% 30.28 in 10.0 mi West 4.6 mph - N/A   Clear
9:13 PM 12.7 °F 5.0 °F 10.9 °F 92% 30.28 in 10.0 mi WNW 4.6 mph - N/A   Clear
9:33 PM 18.5 °F 10.4 °F 17.2 °F 95% 30.28 in 10.0 mi NW 5.8 mph - N/A   Mostly Cloudy
9:53 PM 20.1 °F 12.3 °F 18.5 °F 93% 30.29 in 10.0 mi NW 5.8 mph - N/A   Overcast
10:13 PM 21.4 °F 13.8 °F 18.1 °F 87% 30.29 in 10.0 mi NW 5.8 mph - N/A   Overcast
10:33 PM 22.1 °F 15.9 °F 18.0 °F 84% 30.30 in 10.0 mi NW 4.6 mph - N/A   Overcast
10:53 PM 22.6 °F 14.3 °F 17.6 °F 81% 30.30 in 10.0 mi NNW 6.9 mph - N/A   Overcast
11:13 PM 23.0 °F 14.7 °F 17.4 °F 79% 30.30 in 10.0 mi NW 6.9 mph - N/A   Overcast
11:33 PM 23.0 °F 17.0 °F 17.4 °F 79% 30.30 in 10.0 mi NW 4.6 mph - N/A   Overcast
11:53 PM 22.8 °F 15.5 °F 18.0 °F 82% 30.32 in 10.0 mi WNW 5.8 mph - N/A   Overcast